User: anonymous   Login
Location: Unspecified
(0.0000°N, 0.0000°E)
Time: 12:04:44
(UTC+01:00)
Language:

Cosmos 2237 Rocket - Orbit

View from above orbital plane
View from above orbital plane
View from above satellite
View from above satellite

Ground track
Ground track

The orbit data is extracted from the following two-line orbital elements,

1 22566U 93016B   14329.81111324 -.00000246  00000-0 -10251-3 0  2124
2 22566 071.0088 228.1198 0007946 119.6104 240.5811 14.14870749119104
Epoch (UTC): 25 November 2014 19:28:00
Eccentricity: 0.0007946
inclination: 71.0088°
perigee height: 837 km
apogee height: 848 km
right ascension of ascending node: 228.1198°
argument of perigee: 119.6104°
revolutions per day: 14.14870749
mean anomaly at epoch: 240.5811°
orbit number at epoch: 11910

The dashed part of the orbit path shows where the satellite is in the earth's shadow,  

DLR